Weather History for KIPL - December, 2013

Change the Weather History Date:

Monday, December 16, 2013

  Actual Average Record
Temperature  
Mean Temperature 60 °F -  
Max Temperature 78 °F 69 °F 84 °F (1980)
Min Temperature 43 °F 41 °F 30 °F (2005)
Degree Days  
Heating Degree Days 4    
Growing Degree Days 10 (Base 50)    
Moisture  
Dew Point 29 °F    
Average Humidity 36    
Maximum Humidity 59    
Minimum Humidity 12    
Precipitation  
Precipitation 0.00 in - - ()
Sea Level Pressure  
Sea Level Pressure 30.15 in    
Wind  
Wind Speed 4 mph (West)    
Max Wind Speed 7 mph    
Max Gust Speed -    
Visibility 10 miles    
Events      
Averages and records for this station are not official NWS values.
T = Trace of Precipitation, MM = Missing Value Source: NWS Daily Summary

Daily Weather History Graph

Daily Weather History Graph

Search for Another Location

Airport or City:

Trip Planner

Search our weather history database for the weather conditions in past years. The results will help you decide how hot, cold, wet, or windy it might be!

Date:

Astronomy

Dec. 16, 2013 Rise Set
Actual Time 6:38 AM PST 4:38 PM PST
Civil Twilight 6:10 AM PST 5:05 PM PST
Nautical Twilight 5:40 AM PST 5:36 PM PST
Astronomical Twilight 5:09 AM PST 6:06 PM PST
Moon 4:29 PM PST (12/16) 5:53 AM PST (12/16)
Length of Visible Light 10h 54m
Length of Day
9h 59m
Full, 100% of the Moon is Illuminated
Dec 16
Full
Dec 17
Full
Dec 25
Last Quarter
Jan 1
New
Jan 7
First Quarter

Hourly Weather History & Observations

Time (PST) Temp. Windchill Dew Point Humidity Pressure Visibility Wind Dir Wind Speed Gust Speed Precip Events Conditions
12:53 AM 46.9 °F - 25.0 °F 42% 30.17 in 10.0 mi West 6.9 mph - N/A   Clear
1:53 AM 46.9 °F - 24.1 °F 41% 30.17 in 10.0 mi WNW 6.9 mph - N/A   Clear
2:53 AM 46.0 °F 43.9 °F 24.1 °F 42% 30.16 in 10.0 mi WSW 4.6 mph - N/A   Clear
3:53 AM 45.0 °F 41.8 °F 25.0 °F 46% 30.15 in 10.0 mi West 5.8 mph - N/A   Clear
4:53 AM 45.0 °F 43.5 °F 23.0 °F 42% 30.16 in 10.0 mi WSW 3.5 mph - N/A   Clear
5:53 AM 43.0 °F 40.3 °F 26.1 °F 51% 30.17 in 10.0 mi WSW 4.6 mph - N/A   Clear
6:53 AM 44.1 °F 41.5 °F 26.1 °F 49% 30.18 in 10.0 mi WSW 4.6 mph - N/A   Clear
7:53 AM 48.0 °F - 25.0 °F 41% 30.20 in 10.0 mi South 3.5 mph - N/A   Clear
8:53 AM 55.0 °F - 30.0 °F 38% 30.22 in 10.0 mi Calm Calm - N/A   Clear
9:53 AM 64.9 °F - 27.0 °F 24% 30.22 in 10.0 mi Calm Calm - N/A   Clear
10:53 AM 70.0 °F - 26.1 °F 19% 30.19 in 10.0 mi Calm Calm - N/A   Clear
11:53 AM 73.9 °F - 28.9 °F 19% 30.16 in 10.0 mi Calm Calm - N/A   Clear
12:53 PM 75.0 °F - 27.0 °F 17% 30.13 in 10.0 mi Calm Calm - N/A   Clear
1:53 PM 77.0 °F - 26.1 °F 15% 30.11 in 10.0 mi NNW 3.5 mph - N/A   Clear
2:53 PM 78.1 °F - 21.0 °F 12% 30.10 in 10.0 mi NW 3.5 mph - N/A   Clear
3:53 PM 77.0 °F - 25.0 °F 15% 30.10 in 10.0 mi NW 4.6 mph - N/A   Clear
4:53 PM 70.0 °F - 34.0 °F 27% 30.10 in 10.0 mi North 4.6 mph - N/A   Clear
5:53 PM 64.9 °F - 34.0 °F 32% 30.11 in 10.0 mi Calm Calm - N/A   Clear
6:53 PM 60.1 °F - 37.0 °F 42% 30.12 in 10.0 mi Calm Calm - N/A   Clear
7:53 PM 54.0 °F - 39.9 °F 59% 30.12 in 10.0 mi Calm Calm - N/A   Clear
8:53 PM 54.0 °F - 36.0 °F 51% 30.14 in 10.0 mi West 6.9 mph - N/A   Clear
9:53 PM 53.1 °F - 35.1 °F 50% 30.15 in 10.0 mi WSW 5.8 mph - N/A   Clear
10:53 PM 52.0 °F - 33.1 °F 49% 30.15 in 10.0 mi West 4.6 mph - N/A   Clear
11:53 PM 51.1 °F - 33.1 °F 50% 30.13 in 10.0 mi West 4.6 mph - N/A   Clear